Location: Caribou
(46.8667°N, 68.0167°W)
Time: 22:04:42
(UTC-04:00)

Daily predictions for brighter satellites

Satellite Brightness Start Highest point End
(mag) Time Altitude Azimuth Time Altitude Azimuth Time Altitude Azimuth
COSMOS 2455 3.5 20:43:01 10° S 20:48:15 32° ESE 20:53:31 10° NE
Meteor 1-23 Rocket 4.4 20:43:54 10° SSW 20:49:34 85° W 20:55:22 10° N
SPOT 5 2.8 20:47:01 10° SSE 20:51:20 58° ENE 20:55:35 10° N
H-2A R/B 2.4 20:47:45 10° S 20:52:00 71° WSW 20:56:24 10° NNW
Cosmos 1603 3.9 20:47:26 10° S 20:52:48 49° ESE 20:58:11 10° NE
Lacrosse 5 rocket 2.3 20:49:13 10° WSW 20:53:02 51° NNW 20:57:04 10° NE
ALOS 3.9 20:49:32 10° SSW 20:53:46 34° W 20:58:03 10° NNW
Cosmos 1626 Rocket 3.6 20:56:16 10° S 21:00:40 68° E 21:05:03 10° NNE
Lacrosse 5 3.8 20:57:09 10° W 21:01:43 32° NNW 21:06:17 10° NE
Cosmos 494 Rocket 4.5 20:56:43 10° SSW 21:01:48 66° WNW 21:06:55 10° NNE
CZ-4 SHROUD 3.2 20:59:42 10° SSE 21:02:52 83° ENE 21:06:03 10° NNW
Cosmos 2228 3.8 21:00:40 10° NNW 21:05:00 56° W 21:09:18 10° S
Cosmos 1992 Rocket 4.3 21:00:04 10° NNW 21:05:13 55° ENE 21:10:20 10° SE
Meteor 2-4 Rocket 4.4 21:00:54 10° SSW 21:06:43 63° WNW 21:12:39 10° N
YAOGAN 6 3.2 21:05:21 10° SE 21:08:53 43° ENE 21:12:28 10° N
Terra 3.6 21:05:44 10° ESE 21:09:04 19° ENE 21:12:24 10° NNE
Cosmos 1346 Rocket 4.2 21:13:20 11° SE 21:16:00 21° E 21:19:01 10° NE
Cosmos 1943 3.9 21:11:30 10° SSE 21:16:29 33° ESE 21:21:30 10° NE
Nimbus 7 Rocket 4.5 21:11:15 10° NNE 21:17:17 88° ESE 21:23:11 10° SSW
Cosmos 1943 Rocket 3.6 21:13:33 10° N 21:18:14 27° NE 21:22:57 10° ESE
MetOp-A 4.2 21:14:50 10° SSE 21:20:11 85° ENE 21:25:36 10° NNW
H-2A R/B 3.3 21:17:02 10° ESE 21:21:06 27° ENE 21:25:19 10° N
UNK 4.2 21:17:52 10° NNE 21:23:16 67° ESE 21:28:53 10° S
PSLV R/B 4.0 21:23:22 10° S 21:26:22 48° W 21:29:25 10° NNW
Aureole 2 Rocket 4.1 21:24:34 10° SW 21:28:09 38° WNW 21:31:27 10° N
Lacrosse 4 Rocket 2.7 21:26:48 14° SSE 21:28:53 20° ESE 21:31:56 10° ENE
SeaSat 1 2.9 21:24:40 10° SSE 21:29:32 59° WSW 21:34:26 10° NW
SPOT 1/Viking Rocket 3.6 21:24:42 11° SSE 21:29:39 75° ENE 21:34:49 10° N
CZ-4B R/B 3.5 21:30:25 10° NNE 21:35:29 70° ESE 21:40:39 10° S
Cosmos 1238 4.3 21:35:59 10° SSW 21:39:05 74° W 21:42:07 10° N
DELTA 2 DEB (DPAF) 4.3 21:45:12 18° SSE 21:48:31 66° ENE 21:53:00 10° N
Cosmos 1766 3.9 21:44:49 10° N 21:48:41 43° ENE 21:51:01 21° SE
Cosmos 1758 Rocket 3.9 21:49:55 18° SSE 21:52:57 48° E 21:57:10 10° NNE
ATLAS 3B R/B 3.1 21:45:46 10° SSW 21:53:08 51° ESE 22:00:20 10° NE
ARGOS 3.2 21:51:45 15° SSE 21:56:20 82° WSW 22:01:48 10° NNW
CARTOSAT-1 4.0 21:54:17 20° SE 21:56:57 47° ENE 22:01:07 10° N
Cosmos 2369 Rocket 2.3 21:51:47 10° NNW 21:57:29 76° WSW 22:01:39 19° SSE
USA 234 3.6 22:01:10 18° SSE 22:05:58 54° SW 22:12:25 10° WNW
Atlas Centaur 2 4.0 22:03:45 10° SW 22:09:48 24° S 22:12:43 20° SSE
Cosmos 1825 Rocket 3.9 22:06:04 10° SSW 22:10:30 67° W 22:14:57 10° N
NOAA 11 4.4 22:08:02 17° S 22:12:18 67° WSW 22:17:44 10° NNW
CZ-4C R/B 3.6 22:10:25 21° S 22:13:09 70° WSW 22:17:12 10° NNW
Cosmos 407 Rocket 3.4 22:11:19 12° S 22:16:07 71° ESE 22:21:21 10° NNE
SL-8 R/B 3.8 22:12:13 10° WNW 22:17:04 78° N 22:21:45 11° E
ISS -3.5 22:15:36 10° WSW 22:18:52 77° SSE 22:22:08 10° ENE
CZ-4 R/B 4.2 22:14:01 10° N 22:18:59 70° WNW 22:23:58 10° SSW
SL-27 R/B 3.4 22:21:09 28° ESE 22:21:10 28° ESE 22:24:05 10° NE
Cosmos 1805 3.9 22:17:55 10° N 22:21:42 43° ENE 22:23:10 29° SE
PSLV R/B 4.2 22:20:01 10° WSW 22:22:59 31° S 22:22:59 31° S
Cosmos 2263 4.4 22:17:56 10° NNW 22:23:31 66° WSW 22:26:58 24° S
SL-08 RB Rocket 4.4 22:21:16 18° S 22:24:25 49° W 22:28:51 10° NNW
Nadezhda 4 Rocket 4.4 22:24:07 24° SSE 22:27:38 47° E 22:33:39 10° NNE
Cosmos 1953 2.4 22:25:21 10° N 22:29:20 65° E 22:30:51 35° SSE
COSMOS 2406 4.0 22:27:26 26° SE 22:29:32 33° ESE 22:34:37 10° NE
Cosmos 2208 Rocket 4.4 22:25:06 10° NNW 22:30:09 51° ENE 22:32:53 26° SE
USA 238 DEB 4.3 22:26:24 21° S 22:30:22 38° ESE 22:36:47 10° NE
USA 238 4.3 22:26:35 22° SSE 22:30:29 38° ESE 22:36:52 10° NE
Landsat 7 4.2 22:27:37 22° S 22:30:34 60° W 22:35:18 10° NNW
Spot 4 3.8 22:30:07 29° SSE 22:32:37 84° ENE 22:37:26 10° NNW
Lacrosse 5 rocket 4.0 22:29:52 10° WNW 22:33:05 22° N 22:36:25 10° NE
COSMOS 2455 3.7 22:28:07 10° SW 22:33:57 52° NW 22:39:52 10° NNE
Cosmos 1954 Rocket 4.1 22:32:27 24° S 22:35:38 62° ESE 22:40:52 10° NNE
CZ-4C R/B 4.1 22:41:43 13° E 22:41:43 13° E 22:43:44 10° E
CZ-4B R/B 4.0 22:43:41 12° E 22:45:00 14° ENE 22:46:51 10° NNE
Lacrosse 5 4.0 22:41:37 10° NW 22:45:53 26° N 22:50:09 10° ENE
Terra 2.1 22:43:53 27° S 22:46:22 60° WSW 22:51:06 10° NNW
Cosmos 1346 Rocket 4.4 22:48:51 11° SW 22:52:14 31° WNW 22:55:48 10° N
IGS 5A 4.0 22:51:07 30° SSW 22:52:52 52° W 22:56:56 10° NNW
Cosmos 1741 Rocket 4.4 22:52:17 33° SSE 22:54:01 45° ESE 22:59:05 10° NNE
Cosmos 1544 3.4 22:50:59 10° N 22:54:42 54° ENE 22:55:27 44° ESE
Cosmos 2084 3.3 22:52:35 10° NW 22:56:43 75° SW 22:57:57 45° SSE
H-2A R/B 2.7 22:57:40 24° SSW 23:00:19 44° W 23:05:10 10° NNW
Cosmos 1943 4.3 22:54:58 10° SW 23:00:23 44° NW 23:05:51 10° NNE
Cosmos 1707 3.9 23:00:10 27° E 23:00:26 28° E 23:03:49 10° NNE
Cosmos 1943 Rocket 2.4 22:56:55 10° NNW 23:02:21 58° WSW 23:04:49 32° S
H-2A R/B 4.1 23:00:12 10° NE 23:02:45 18° E 23:02:45 18° E
Cosmos 1842 4.2 23:04:02 24° SW 23:06:00 44° WNW 23:09:47 10° N
Cosmos 2221 3.5 23:02:50 10° N 23:06:50 35° ENE 23:07:58 30° ESE
Lacrosse 4 Rocket 2.4 23:03:26 10° SW 23:07:19 44° NW 23:11:17 10° NNE
Cosmos 1570 Rocket 4.1 23:02:01 10° NNW 23:07:24 76° WSW 23:09:35 37° S
Cosmos 1932 4.3 23:03:15 18° SSW 23:07:59 77° ESE 23:14:15 10° NE
Cosmos-2242 4.1 23:05:38 10° NNW 23:09:45 39° W 23:11:38 26° SW
Cosmos 1850 Rocket 4.0 23:10:00 37° S 23:11:58 65° ESE 23:17:09 10° NNE
Cosmos 1758 4.3 23:11:04 10° NNW 23:14:56 40° W 23:16:19 30° SW
Cosmos 1607 4.1 23:12:49 32° S 23:15:27 54° ESE 23:21:29 10° NE
Cosmos 1656 Rocket 3.6 23:11:50 10° NNW 23:17:34 87° WSW 23:19:52 38° SSE
Cosmos 1689 Rocket 3.7 23:23:57 27° ENE 23:24:04 27° ENE 23:26:51 10° N
Okean 3 Rocket 3.6 23:23:14 50° SSE 23:24:10 65° E 23:28:34 10° NNE
Meteor 2-5 Rocket 3.8 23:23:06 37° SSE 23:25:23 66° E 23:31:07 10° NNE
Cosmos 1733 3.0 23:27:18 10° N 23:31:12 84° E 23:31:40 68° SSE
Cosmos 1140 Rocket 3.7 23:28:55 27° SW 23:31:48 70° WNW 23:37:04 10° NNE
CZ-2C R/B 4.5 23:29:40 10° NE 23:33:11 17° E 23:34:35 16° ESE
Meteor 2-1 Rocket 4.4 23:32:19 10° N 23:38:14 67° ENE 23:40:30 38° SSE
Cosmos 2369 Rocket 4.5 23:38:40 10° WNW 23:40:28 12° W 23:42:16 10° WSW
ATLAS 3B R/B 3.8 23:36:36 10° WSW 23:44:01 50° NW 23:51:13 10° NE
Cosmos 1417 Rocket 4.5 23:38:05 10° N 23:44:14 75° E 23:46:40 39° SSE
ALOS 2 2.6 23:46:16 52° SE 23:47:12 71° ENE 23:51:36 10° N
COSMOS 2487 2.4 23:47:20 82° WSW 23:47:26 85° WNW 23:51:04 10° NNE
Cosmos 2369 4.3 23:42:46 10° NNW 23:48:17 51° ENE 23:51:07 27° ESE
NOSS 3-2 (A) 3.8 23:47:21 39° SSE 23:49:05 49° ESE 23:55:26 10° NE
Cosmos 1553 Rocket 4.2 23:43:17 10° N 23:49:35 64° ENE 23:52:16 35° SSE
Cosmos 1470 3.5 23:49:42 10° NNW 23:53:21 39° W 23:53:49 37° WSW
Cosmos 1408 Rocket 3.7 23:53:16 53° SE 23:53:58 61° E 23:58:24 10° NNE
ISS -1.8 23:52:26 10° W 23:55:31 37° N 23:58:36 10° ENE
